カタログに戻る

COSMOS 839 DEB

運用中UNKNOWN
NORAD 10413·DEBRIS·🇷🇺 Russia

打ち上げ Jul 8, 1976 から Plesetsk Cosmodrome

Loading…

次のパス (今後24時間)

TLE

最新Source: Space-Track

元期: Sep 14, 2026, 13:15 UTC

1 10413U 76067G   26257.55237997  .00000000  00000-0  21678-3 0  9991
2 10413  65.8773  93.8291 0683045 259.2062 122.8274 12.30005810250307

AllMySatでCOSMOS 839 DEBをリアルタイム追跡

Download on the App Store